CAPE
116 0 0 0 0 0 0 0 28 19 2 5 17 46 101 114 138 132 161 177 168 127 106 85 58 42 46 55 28 10 9 9 11 6 1 1 0 1 3 0 0 0 0
154 0 0 0 0 11 0 0 0 0 0 1 1 6 33 54 57 72 87 99 74 64 50 32 27 21 30 17 3 0 0 0 4 5 0 1 0 0 0 0 0 0 0
158 0 0 11 1 31 15 0 0 0 0 1 1 1 3 1 1 1 4 3 4 8 4 6 3 4 1 0 1 1 0 0 4 3 1 2 2 0 0 0 0 0 0
173 5 0 0 0 42 0 0 0 0 0 0 1 2 1 1 1 1 1 0 0 0 0 0 0 0 0 0 1 0 0 2 0 0 0 4 0 0 0 0 0 0 0
202 79 38 23 26 21 0 0 0 0 0 0 0 0 0 0 0 0 0 0 0 0 0 1 1 1 0 0 0 0 1 1 0 0 0 1 2 2 1 0 1 0 0
223 111 79 55 76 12 0 0 0 0 0 0 1 1 1 1 0 0 0 0 1 1 0 1 0 0 0 0 0 0 0 0 1 1 2 0 0 1 1 2 3 2 0
243 61 37 77 51 0 0 0 0 0 0 0 0 0 0 0 0 0 0 0 0 0 0 0 0 0 0 0 0 0 0 0 0 0 0 0 1 0 0 1 2 0 1
257 80 23 40 1 0 0 0 0 0 0 0 0 0 0 0 0 0 0 0 0 0 0 0 0 0 0 0 0 0 0 0 0 0 0 0 0 0 0 0 0 0 0
111 150 13 1 0 0 0 0 0 0 0 0 0 0 0 0 0 0 0 0 0 0 0 0 0 0 0 0 0 0 0 0 0 0 0 0 0 0 0 0 0 0 0
0 0 1 0 0 0 0 0 0 0 0 0 0 0 0 0 0 0 0 0 0 0 0 0 0 0 0 0 0 0 0 0 0 0 0 0 0 0 0 0 0 0 0
0 0 0 1 0 0 0 0 0 0 0 0 0 0 0 0 0 0 0 0 0 0 0 0 0 0 0 0 0 0 0 0 0 0 0 0 0 0 0 0 0 0 0
1 1 3 3 2 2 0 0 0 0 0 0 0 0 0 0 0 0 0 0 0 0 0 0 0 0 0 0 0 0 0 0 0 0 0 0 0 0 0 0 0 0 0
1 1 3 3 4 4 1 0 0 0 0 0 0 0 0 0 0 0 0 0 0 0 0 0 0 0 0 0 0 0 0 0 0 0 0 0 0 0 0 0 0 0 0
2 3 2 2 2 1 1 0 1 0 0 0 0 0 1 0 0 0 0 0 0 0 0 0 0 0 0 0 0 0 0 0 0 0 0 0 0 0 0 0 0 0 0
2 2 1 1 0 0 0 0 0 0 0 0 0 0 0 0 0 0 0 0 0 0 0 0 0 0 0 0 0 0 0 0 0 0 0 0 0 0 0 0 0 0 0
0 0 0 0 0 0 0 0 0 0 0 0 0 0 0 0 0 0 0 0 0 0 0 0 0 0 0 0 0 0 0 0 0 0 0 0 0 0 0 0 0 0 0
0 0 0 0 0 0 0 0 0 0 0 0 0 0 0 0 0 0 0 0 0 0 0 0 0 0 0 0 0 0 0 0 0 0 0 0 0 0 0 0 0 0 0
0 0 0 0 0 0 0 0 0 0 0 0 0 0 0 0 0 0 0 0 0 0 0 0 0 0 0 0 0 0 0 0 0 0 0 0 0 0 0 0 0 0 0
0 0 0 0 0 0 0 0 0 0 0 0 0 0 0 0 0 0 0 0 0 0 0 0 0 0 0 0 0 0 0 0 0 0 0 0 0 0 0 0 0 0 0
0 0 0 0 0 0 0 0 0 0 0 0 0 0 0 0 0 0 0 0 0 0 0 0 0 0 0 0 0 0 0 0 0 0 0 0 0 0 0 0 0 0 0
0 0 0 0 0 0 0 0 0 0 0 0 0 0 0 0 0 0 0 0 0 0 0 0 0 0 0 0 0 0 0 0 0 0 0 0 0 0 0 0 0 0 0
0 0 0 0 0 0 0 0 0 0 0 0 0 0 0 0 0 0 0 0 0 0 0 0 0 0 0 0 0 0 0 0 0 0 0 0 0 0 0 0 0 0 0
0 0 0 0 0 0 0 0 0 0 0 0 0 0 0 0 0 0 0 0 0 0 0 0 0 0 0 0 0 0 0 0 0 0 0 0 0 0 0 0 0 0 0
0 0 0 0 0 0 0 0 0 0 0 0 0 0 0 0 0 0 0 0 0 0 0 0 0 0 0 0 0 0 0 0 0 0 0 0 0 0 0 0 0 0 0
0 0 0 0 0 0 0 0 0 0 0 0 0 0 0 0 0 0 0 0 0 0 0 0 0 0 0 0 0 0 0 0 0 0 0 0 0 0 0 0 0 0 0
0 0 0 0 0 0 0 0 0 0 0 0 0 0 0 0 0 0 0 0 0 0 0 0 0 0 0 0 0 0 0 0 0 0 0 0 0 0 0 0 0 0 0
CIN
-179 0 0 0 0 0 0 0 -148 -128 -36 -87 -79 -53 -16 -12 -7 -16 -6 -6 -12 -37 -57 -62 -75 -93 -77 -58 -57 -47 -33 -29 -12 -36 -43 -89 -41 -125 -138 0 0 0 0
-149 0 0 0 0 -180 0 0 0 0 0 0 -7 -126 -80 -27 -32 -25 -24 -24 -43 -59 -72 -75 -68 -44 -36 -26 -43 0 -4 -3 -11 -19 -8 -33 0 0 0 0 0 0 0
-184 0 0 -219 -14 -115 -150 0 0 0 0 0 0 0 -141 -89 -80 -71 -75 -58 -73 -59 -45 -29 -23 -26 -35 0 -39 -60 -13 -12 -25 -11 -15 -38 0 0 0 0 0 0 0
-166 -165 0 0 0 -77 0 0 0 0 0 0 0 0 0 0 0 -40 0 0 0 0 0 0 0 -12 0 0 0 0 0 -38 -7 -1 0 -25 -10 0 0 0 0 0 0
-147 -156 -172 -168 -119 -48 0 0 0 0 0 0 0 0 0 0 0 0 0 0 0 0 0 0 0 0 0 0 0 0 0 0 0 -1 -9 -10 -6 0 0 0 0 0 0
-96 -128 -142 -160 -110 -71 0 0 0 0 0 0 0 0 0 0 0 0 0 0 0 0 0 0 0 0 0 0 0 0 0 0 0 0 0 0 0 0 0 0 0 0 0
-63 -139 -166 -118 -113 0 0 0 0 0 0 0 0 0 0 0 0 0 0 0 0 0 0 0 0 0 0 0 0 0 0 0 0 0 0 0 0 0 0 0 0 0 0
-66 -137 -176 -126 -70 0 0 0 0 0 0 0 0 0 0 0 0 0 0 0 0 0 0 0 0 0 0 0 0 0 0 0 0 0 0 0 0 0 0 0 0 0 0
-134 -104 -154 -29 0 0 0 0 0 0 0 0 0 0 0 0 0 0 0 0 0 0 0 0 0 0 0 0 0 0 0 0 0 0 0 0 0 0 0 0 0 0 0
0 0 -14 0 0 0 0 0 0 0 0 0 0 0 0 0 0 0 0 0 0 0 0 0 0 0 0 0 0 0 0 0 0 0 0 0 0 0 0 0 0 0 0
0 0 0 0 0 0 0 0 0 0 0 0 0 0 0 0 0 0 0 0 0 0 0 0 0 0 0 0 0 0 0 0 0 0 0 0 0 0 0 0 0 0 0
0 0 0 0 0 0 0 0 0 0 0 0 0 0 0 0 0 0 0 0 0 0 0 0 0 0 0 0 0 0 0 0 0 0 0 0 0 0 0 0 0 0 0
0 0 0 0 0 0 0 0 0 0 0 0 0 0 0 0 0 0 0 0 0 0 0 0 0 0 0 0 0 0 0 0 0 0 0 0 0 0 0 0 0 0 0
0 0 0 0 0 0 0 0 0 0 0 0 0 0 0 0 0 0 0 0 0 0 0 0 0 0 0 0 0 0 0 0 0 0 0 0 0 0 0 0 0 0 0
0 0 0 0 0 0 0 0 0 0 0 0 0 0 0 0 0 0 0 0 0 0 0 0 0 0 0 0 0 0 0 0 0 0 0 0 0 0 0 0 0 0 0
0 0 0 0 0 0 0 0 0 0 0 0 0 0 0 0 0 0 0 0 0 0 0 0 0 0 0 0 0 0 0 0 0 0 0 0 0 0 0 0 0 0 0
0 0 0 0 0 0 0 0 0 0 0 0 0 0 0 0 0 0 0 0 0 0 0 0 0 0 0 0 0 0 0 0 0 0 0 0 0 0 0 0 0 0 0
0 0 0 0 0 0 0 0 0 0 0 0 0 0 0 0 0 0 0 0 0 0 0 0 0 0 0 0 0 0 0 0 0 0 0 0 0 0 0 0 0 0 0
0 0 0 0 0 0 0 0 0 0 0 0 0 0 0 0 0 0 0 0 0 0 0 0 0 0 0 0 0 0 0 0 0 0 0 0 0 0 0 0 0 0 0
0 0 0 0 0 0 0 0 0 0 0 0 0 0 0 0 0 0 0 0 0 0 0 0 0 0 0 0 0 0 0 0 0 0 0 0 0 0 0 0 0 0 0
0 0 0 0 0 0 0 0 0 0 0 0 0 0 0 0 0 0 0 0 0 0 0 0 0 0 0 0 0 0 0 0 0 0 0 0 0 0 0 0 0 0 0
0 0 0 0 0 0 0 0 0 0 0 0 0 0 0 0 0 0 0 0 0 0 0 0 0 0 0 0 0 0 0 0 0 0 0 0 0 0 0 0 0 0 0
0 0 0 0 0 0 0 0 0 0 0 0 0 0 0 0 0 0 0 0 0 0 0 0 0 0 0 0 0 0 0 0 0 0 0 0 0 0 0 0 0 0 0
0 0 0 0 0 0 0 0 0 0 0 0 0 0 0 0 0 0 0 0 0 0 0 0 0 0 0 0 0 0 0 0 0 0 0 0 0 0 0 0 0 0 0
0 0 0 0 0 0 0 0 0 0 0 0 0 0 0 0 0 0 0 0 0 0 0 0 0 0 0 0 0 0 0 0 0 0 0 0 0 0 0 0 0 0 0
0 0 0 0 0 0 0 0 0 0 0 0 0 0 0 0 0 0 0 0 0 0 0 0 0 0 0 0 0 0 0 0 0 0 0 0 0 0 0 0 0 0 0
Wind_Speed
12 14 15 17 20 20 22 25 25 26 27 22 17 16 13 11 9 8 11 14 18 22 22 16 13 9 8 12 17 20 19 20 20 22 23 22 22 21 18 17 19 19 19
11 13 15 17 18 20 21 23 25 26 27 25 20 21 18 16 13 12 11 11 16 18 14 11 12 13 13 14 14 18 19 19 20 25 23 22 21 20 18 17 19 19 19
12 13 14 16 18 18 19 21 24 25 26 26 24 23 21 20 18 16 13 12 12 11 12 13 11 11 11 12 11 14 16 17 19 20 22 22 21 20 18 18 19 19 19
12 12 13 14 16 17 18 20 22 23 24 25 26 25 24 22 21 19 17 16 15 13 13 14 14 14 13 13 14 14 15 14 17 19 21 20 18 18 17 18 19 20 19
11 11 12 14 16 18 19 19 20 21 22 23 23 24 24 24 23 22 21 20 17 15 15 15 15 15 15 16 16 17 17 18 18 18 18 18 18 18 20 19 22 20 20
10 10 10 13 15 17 19 19 19 20 20 20 21 22 22 22 21 21 20 19 18 17 16 16 16 16 16 17 18 18 18 18 18 19 20 21 22 22 22 18 15 16 18
9 7 9 11 14 16 18 18 17 18 18 19 20 21 22 22 22 21 21 20 18 18 17 17 16 17 17 18 19 20 20 20 19 17 18 19 20 22 20 20 17 17 17
7 4 7 8 10 14 15 16 16 16 16 17 18 19 20 20 20 21 20 20 19 18 18 17 17 17 18 18 18 20 21 21 20 19 19 20 19 20 19 17 15 15 16
9 7 5 5 7 10 11 12 13 13 14 15 16 17 18 19 18 18 19 19 18 17 17 17 17 17 18 18 18 18 19 20 21 21 21 21 22 22 19 17 18 19 19
19 14 6 6 5 7 9 9 11 11 12 14 15 16 17 17 18 18 17 17 17 16 17 17 18 18 19 19 18 19 19 19 19 20 21 22 22 22 22 22 22 21 21
20 16 9 6 7 8 9 9 9 10 12 13 14 15 17 17 17 17 16 16 15 15 16 17 17 18 19 20 19 19 18 17 19 20 21 22 23 23 24 24 24 23 23
17 16 13 8 7 7 7 8 8 9 10 13 13 15 17 18 18 17 16 15 15 15 16 16 18 19 20 20 19 19 18 18 19 20 21 23 24 25 25 25 25 23 22
16 15 13 10 9 9 8 8 7 10 9 10 12 14 15 16 17 16 16 16 15 16 16 17 18 19 19 20 20 20 20 20 20 21 22 23 24 24 25 23 23 22 23
14 14 12 11 9 9 10 8 8 9 9 10 12 13 13 14 14 14 14 14 15 16 16 17 17 19 20 20 20 21 21 21 21 22 23 23 24 25 26 25 24 24 24
13 12 12 11 10 9 10 10 10 11 10 10 11 11 11 12 12 13 13 13 14 14 15 16 17 18 19 20 20 21 21 21 22 22 23 25 26 26 26 25 24 24 24
12 12 11 11 10 10 10 11 14 14 13 12 12 11 11 11 11 12 13 13 13 14 15 15 16 17 18 19 20 21 21 22 22 22 24 25 26 26 25 25 24 24 24
11 11 11 11 11 10 11 11 12 14 14 14 12 11 11 11 11 12 12 13 14 14 15 15 15 16 18 18 20 20 21 21 20 22 23 25 25 25 25 25 24 24 23
12 12 11 12 12 12 13 13 13 12 12 13 13 11 11 11 11 12 11 13 14 14 14 15 16 16 17 18 19 19 19 19 20 21 23 24 24 24 24 24 24 23 21
12 12 12 13 13 14 14 15 14 14 14 13 11 11 11 12 13 13 11 12 13 13 14 15 14 15 16 17 18 18 18 17 18 19 21 23 24 24 23 22 22 20 19
12 12 12 13 13 14 14 14 15 15 15 13 11 9 10 12 13 13 14 13 14 15 14 13 13 13 14 15 16 17 18 16 15 16 18 20 22 22 22 21 20 19 17
10 10 10 11 12 13 14 14 15 14 14 13 11 9 9 11 12 14 15 15 15 14 14 14 13 12 12 12 14 15 17 16 14 15 16 18 19 20 19 18 18 18 16
9 9 9 10 12 12 13 14 14 14 13 13 12 9 8 10 11 12 15 13 13 14 14 16 14 12 11 10 11 13 14 15 14 13 13 15 17 18 16 16 17 17 17
9 10 11 12 12 13 13 13 14 14 13 13 12 12 11 11 13 14 14 13 13 14 14 14 12 12 11 10 11 12 13 13 11 10 11 13 15 15 14 14 14 15 16
9 12 14 15 14 13 13 13 12 12 12 11 11 9 10 9 11 12 13 12 12 13 13 13 11 10 10 10 11 13 13 12 10 9 10 12 13 12 12 13 13 13 13
12 16 18 19 17 13 12 13 11 11 11 10 8 6 7 10 11 10 12 11 11 11 11 11 10 9 9 8 10 12 12 11 10 10 11 11 11 10 10 11 12 11 11
18 21 23 23 19 14 13 13 13 13 14 14 9 8 8 9 11 11 12 11 11 10 10 10 10 9 8 7 8 10 10 9 9 9 10 11 10 8 9 10 11 10 10
Wind_Direction
90 79 67 56 45 44 36 29 28 31 30 343 338 76 82 54 33 9 326 302 281 269 271 281 287 292 298 302 297 294 296 298 300 304 304 305 307 308 317 315 308 309 312
89 64 57 51 49 48 43 36 31 21 30 11 347 5 30 42 20 359 343 319 290 284 296 298 294 292 299 310 300 294 299 301 301 300 302 305 308 310 313 317 311 316 314
92 67 57 51 52 54 51 48 27 21 24 29 20 18 24 32 31 23 4 359 334 321 318 318 322 311 320 318 330 306 314 317 316 315 308 309 308 304 311 314 312 313 316
101 77 60 60 57 58 54 50 38 26 29 31 39 41 40 38 37 37 29 21 8 341 328 329 327 324 324 336 330 333 333 333 328 320 317 319 320 319 318 314 309 317 322
111 93 71 62 60 54 44 44 50 39 39 38 35 34 36 36 41 44 42 37 24 12 1 356 355 357 346 331 333 330 327 324 330 333 331 326 324 319 314 313 309 320 319
116 107 71 54 64 54 43 40 37 33 35 34 29 29 25 29 31 36 36 31 24 22 17 10 7 6 3 1 357 351 343 339 334 334 332 327 326 328 327 328 333 331 327
136 78 47 46 53 45 41 41 41 38 40 36 34 34 33 30 32 36 37 32 26 20 18 15 12 9 10 10 8 6 2 358 354 356 350 344 340 336 336 332 333 334 336
148 63 38 36 40 34 33 34 40 40 35 34 31 31 30 29 36 36 34 30 26 20 20 25 24 18 14 15 14 12 9 9 9 9 7 2 356 350 353 356 359 358 348
1 343 347 10 24 27 27 24 27 32 31 27 24 22 23 20 23 24 23 19 20 20 20 17 19 18 14 10 12 11 11 13 13 14 13 9 5 2 -0 358 347 342 335
329 335 338 330 2 15 15 16 10 20 23 23 21 15 13 15 17 18 17 18 18 16 15 13 12 11 8 9 7 2 2 4 8 4 2 2 360 359 357 352 341 335 333
331 335 346 339 339 348 357 4 14 18 20 17 16 11 7 7 8 12 14 20 21 18 16 12 10 8 4 2 3 1 1 10 7 5 2 359 356 353 348 347 345 341 337
347 343 339 342 346 353 3 4 6 16 13 12 11 7 1 1 6 12 19 26 24 21 14 13 11 7 4 6 9 14 16 12 8 4 359 355 351 349 347 349 348 348 346
357 355 354 348 346 347 352 348 357 2 18 17 11 3 1 1 7 13 16 16 22 22 24 22 19 18 17 16 15 14 13 9 6 1 359 357 357 354 352 351 352 353 351
1 7 7 6 360 2 353 350 359 7 10 11 6 6 4 5 10 14 19 24 25 22 24 23 22 18 13 10 9 9 10 9 8 6 3 1 358 355 353 352 350 347 346
3 10 13 16 18 24 15 9 3 1 5 6 4 10 14 11 17 25 27 24 22 23 20 14 9 7 8 11 12 11 12 10 7 5 2 359 356 355 354 355 354 352 349
22 23 25 30 25 16 16 10 360 4 4 9 12 21 23 32 34 30 25 20 19 15 9 8 5 7 10 11 10 8 5 4 4 6 4 1 358 357 357 358 358 356 353
30 33 31 28 25 20 17 13 7 358 6 8 12 22 29 28 29 23 20 18 13 8 10 10 11 12 11 10 6 7 6 7 11 9 7 4 4 3 2 1 360 358 357
38 41 37 35 31 28 23 22 23 19 11 3 3 15 23 21 13 11 17 11 2 6 9 9 8 10 11 10 9 10 10 12 12 12 11 10 9 8 6 3 2 1 3
47 44 44 38 32 29 28 24 18 14 10 13 14 10 5 1 358 356 2 359 1 1 1 2 7 10 10 11 11 11 11 13 14 14 14 14 12 11 10 9 8 9 12
45 47 41 36 30 25 20 15 10 8 7 10 10 9 0 351 351 350 351 352 352 349 354 357 2 3 5 8 12 13 13 14 15 16 14 14 14 15 15 16 16 14 18
38 30 26 16 10 5 4 4 4 4 5 6 7 8 2 355 350 344 343 344 349 356 359 357 356 357 2 7 11 12 12 13 17 16 16 16 18 18 21 26 22 18 25
27 19 6 358 354 354 355 354 353 354 355 356 358 4 7 352 346 347 339 350 354 354 357 354 356 0 3 11 12 9 9 10 13 18 21 20 20 20 27 30 30 22 17
1 353 346 341 340 338 336 338 335 340 342 341 343 341 340 336 331 335 338 346 348 350 353 356 0 5 12 11 5 3 1 1 9 21 23 21 20 23 34 35 42 41 26
351 341 336 335 332 328 325 326 331 335 341 341 337 340 341 344 335 336 337 342 346 349 351 355 357 358 359 359 360 359 359 4 18 24 23 18 17 29 36 39 50 54 54
354 340 340 339 335 330 327 328 332 335 339 342 342 345 342 338 336 333 332 333 335 338 342 346 347 345 345 351 357 0 2 9 12 14 14 17 22 32 35 37 40 52 67
345 330 329 333 336 335 329 327 328 328 324 323 322 321 324 323 326 324 325 323 323 324 327 331 332 332 334 337 346 354 359 5 8 9 11 14 19 31 35 31 24 32 38